Location: Kailua
(21.4020°N, 157.7390°W)
Time: 13:11:22
(UTC-10:00)

Cosmos 2297 Rocket - Visible Passes

Search period start: 04 September 2015 00:00
Search period end: 14 September 2015 00:00
Orbit: 838 x 845 km, 71.0° (Epoch: 04 September)

Date Brightness Start Highest point End Pass type
(mag) Time Alt. Az. Time Alt. Az. Time Alt. Az.
09 Sep 4.4 20:14:13 10° NE 20:14:24 10° NE 20:14:24 10° NE visible
09 Sep 4.9 21:55:47 10° NNW 21:56:13 12° NNW 21:56:13 12° NNW visible
10 Sep 4.3 19:59:28 10° NE 20:00:03 11° NE 20:00:03 11° NE visible
10 Sep 4.6 21:40:41 10° NNW 21:41:53 17° NNW 21:41:53 17° NNW visible
11 Sep 4.2 19:44:47 10° NE 19:45:46 11° NE 19:45:46 11° NE visible
11 Sep 4.2 21:25:35 10° NNW 21:27:37 23° NNW 21:27:37 23° NNW visible
12 Sep 4.1 19:30:14 10° NE 19:31:32 11° ENE 19:31:35 11° ENE visible
12 Sep 3.7 21:10:30 10° NNW 21:13:26 31° NW 21:13:26 31° NW visible
13 Sep 4.1 19:16:03 10° ENE 19:16:25 10° ENE 19:17:18 10° ENE visible
13 Sep 3.0 20:55:25 10° NNW 20:59:23 45° NW 20:59:23 45° NW visible
